1998-067WV (60955 NORAD) Tracking and Keplerian Element Data

This shows tracking and keplerian element data for the satellite.

Feedback or suggestion? Click here.




ElementValue
Catalog60955
Name1998-067WV
Epoch Orbit692
Epoch Day286.6425533
Epoch Year2024
RAAN89.2819
Inclination51.6283
Eccentricity0.0008158
Argument of Perigee295.9856
Mean Anonmoly64.0307
Mean Motion15.85062319
Decay Rate0.0100092
L11 60955U 98067WV 24286.64255330 .01000920 00000+0 37042-2 0 9994
L22 60955 51.6283 89.2819 0008158 295.9856 64.0307 15.85062319 6922



Live tracking and technical data element details for 1998-067WV (NORAD 60955). 1998-067WV can be tracked NOW for your location showing map with azimuth and elevation plus other details from your city location.







IsCatalogInMostPopularTable: catalog: 60955, numindb: 6
Update: records affected: 1



GetName: 60955 1998-067WV

Hit Count: updated at: Wed, 04 Dec 2024 18:04:03 GMT